SL-8 DEB, 12404

Orbit data source: Space-Track

SL-8 DEB, 12404 is space debris in LEO originally from a launch on Mon, 17 Mar 1980 UTC launched from the Plesetsk Missile And Space Complex (PKMTR). Debris objects in space refer to the collection of defunct objects orbiting the Earth. Examples of debris include non-operational satellites, rocket bodies, and fragments generated from explosions, collisions, or faulty payload assembly.

Loading next visibility...
Identifier
12404, 1980-022C
Orbit
LEO
Country
Flag of CISCIS
Related business
Manufacturer
Unknown
Mission
Spacecraft
Bus & Motor
Unknown
Mass
Unknown
Launch date (UTC)
1980-03-17 (46 years ago)
Launch vehicle
Unknown
Launch site
Plesetsk Missile And Space Complex (PKMTR)
Object type
Payload
Rocket body
Debris
Shape & HBR
Unknown shape, 0.1 m
Radar Cross Section
Small (<0.1 m²)

Expand to show TLE details & history
Last TLE update: 10 hours ago

TLE from 10 hours ago
0 SL-8 DEB
1 12404U 80022C   26066.63567662  .00011755  00000-0  24244-2 0  9991
2 12404  82.9050 291.7697 0010234  10.7788 349.3632 14.60337457352335
Epoch: 2026-03-07T15:15Z
TLE epoch observation values (Epoch: 2026-03-07T15:15:22.459Z)
Latitude
-0.00012°
Longitude
-102.42838°
Altitude
687.989 km
Speed
7.516 km/s
True Right ascension
19h 27m 04s
True Declination
0° 00' 00"
Sunlit
Object was in daylight at epoch
Visualization orbit readout
Latitude
Unknown
Longitude
Unknown
Altitude
Unknown
Speed
Unknown
Apparent Right ascension
Unknown
Apparent Declination
Unknown
Sunlit
N/A
Visualization observer readout
Local Sidereal Time
04:48:20
Azimuth
Unknown
Elevation
Unknown
Doppler factor
Unknown
Orbital elements
Apogee altitude
696.35 km
Perigee altitude
681.885 km
Semi-major axis
7,067.255 km
Eccentricity
0.00102
Inclination
82.905°
RAAN
291.7697°
Arg. of periapsis
10.7788°
True anomaly
349.34153°
Mean anomaly
349.3632°
Eccentric anomaly
349.35237°
Mean motion
3.65315 °/min
Orbital period
98.55 mins
BSTAR
0.0024244
Loading maneuver chart data...
Computing Atmospheric mass density...
Loading historical data...
Loading historical data...
Loading historical data...
Loading historical data...
Loading historical data...
Loading historical data...
Loading historical data...
Other satellites on launch #22 in the year 1980 (1980-03-17 UTC)

Documentation

Showing up to 5 results
|